| time (UTC) | temp F | wind direction | speed knots | gust knots | rain 1hr in | rain 24hr in | rain mn in | humidity % | barometer mb |
| 20260506111547 | 53 | 96 | 3.5 | 9.6 | 0.00 | 0.00 | 0.00 | 61 | 1009.7 |
| 20260506110047 | 53 | 98 | 2.6 | 10.4 | 0.00 | 0.00 | 0.00 | 64 | 1009.7 |
| 20260506104607 | 53 | 66 | 1.7 | 7.0 | 0.00 | 0.00 | 0.00 | 68 | 1009.5 |
| 20260506103042 | 52 | 86 | 1.7 | 13.0 | 0.00 | 0.00 | 0.00 | 65 | 1009.6 |
| 20260506101541 | 52 | 71 | 3.5 | 15.6 | 0.00 | 0.00 | 0.00 | 62 | 1009.6 |
| 20260506100043 | 52 | 88 | 5.2 | 16.5 | 0.00 | 0.00 | 0.00 | 57 | 1009.5 |
| 20260506094538 | 52 | 94 | 3.5 | 11.3 | 0.00 | 0.00 | 0.00 | 59 | 1009.4 |
| 20260506093035 | 52 | 67 | 4.3 | 15.6 | 0.00 | 0.00 | 0.00 | 61 | 1009.3 |
| 20260506091534 | 52 | 39 | 1.7 | 7.0 | 0.00 | 0.00 | 0.00 | 65 | 1009.3 |
| 20260506090040 | 52 | 123 | 0.9 | 7.0 | 0.00 | 0.00 | 0.00 | 68 | 1009.2 |
| 20260506084528 | 52 | 111 | 3.5 | 10.4 | 0.00 | 0.00 | 0.00 | 70 | 1009.1 |
| 20260506083035 | 51 | 59 | 2.6 | 9.6 | 0.00 | 0.00 | 0.00 | 73 | 1009.1 |
| 20260506081520 | 51 | 54 | 2.6 | 8.7 | 0.00 | 0.00 | 0.00 | 74 | 1009.0 |
| 20260506073015 | 50 | 113 | 0.0 | 5.2 | 0.00 | 0.00 | 0.00 | 78 | 1008.8 |
| 20260506071513 | 50 | 58 | 1.7 | 4.3 | 0.00 | 0.00 | 0.00 | 78 | 1008.8 |
| 20260506061504 | 49 | 46 | 1.7 | 5.2 | 0.00 | 0.00 | 0.00 | 80 | 1008.5 |
| 20260506044608 | 48 | 83 | 0.0 | 3.5 | 0.00 | 0.00 | 0.00 | 84 | 1008.2 |
| 20260506043056 | 48 | 327 | 0.9 | 2.6 | 0.00 | 0.00 | 0.00 | 84 | 1008.2 |
| 20260506041553 | 48 | 331 | 0.0 | 3.5 | 0.00 | 0.00 | 0.00 | 84 | 1008.3 |
| 20260506040051 | 48 | 5 | 0.0 | 4.3 | 0.00 | 0.00 | 0.00 | 84 | 1008.3 |
| 20260506034549 | 48 | 360 | 0.9 | 3.5 | 0.00 | 0.00 | 0.00 | 84 | 1008.4 |
| 20260506033046 | 49 | 326 | 0.9 | 4.3 | 0.00 | 0.00 | 0.00 | 84 | 1008.4 |
| 20260506031547 | 49 | 201 | 0.0 | 2.6 | 0.00 | 0.00 | 0.00 | 84 | 1008.5 |
| 20260506030041 | 49 | 296 | 0.0 | 3.5 | 0.00 | 0.00 | 0.00 | 84 | 1008.7 |
| 20260506024545 | 49 | 346 | 0.0 | 2.6 | 0.00 | 0.00 | 0.00 | 83 | 1008.8 |
| 20260506023040 | 49 | 355 | 0.9 | 3.5 | 0.00 | 0.00 | 0.00 | 83 | 1008.9 |
| 20260506021552 | 49 | 23 | 0.9 | 2.6 | 0.00 | 0.00 | 0.00 | 82 | 1008.9 |
| 20260506020037 | 49 | 75 | 0.0 | 4.3 | 0.00 | 0.00 | 0.00 | 82 | 1009.0 |
| 20260506014536 | 49 | 29 | 0.0 | 3.5 | 0.00 | 0.00 | 0.00 | 82 | 1009.2 |
| 20260506013034 | 49 | 327 | 0.0 | 2.6 | 0.00 | 0.00 | 0.00 | 81 | 1009.2 |
| 20260506011534 | 49 | 328 | 0.0 | 3.5 | 0.00 | 0.00 | 0.00 | 81 | 1009.2 |
| 20260506010044 | 49 | 329 | 0.9 | 7.0 | 0.00 | 0.00 | 0.00 | 82 | 1009.3 |
| 20260506004530 | 49 | 119 | 0.9 | 2.6 | 0.00 | 0.00 | 0.00 | 82 | 1009.5 |
| 20260506003028 | 49 | 344 | 0.0 | 3.5 | 0.00 | 0.00 | 0.00 | 81 | 1009.6 |
| 20260506001526 | 49 | 51 | 0.9 | 5.2 | 0.00 | 0.00 | 0.00 | 80 | 1009.8 |
| 20260506000025 | 49 | 84 | 0.9 | 7.0 | 0.00 | 0.00 | 0.00 | 79 | 1009.9 |
| 20260505234522 | 49 | 326 | 0.9 | 4.3 | 0.00 | 0.00 | 0.00 | 78 | 1009.9 |
| 20260505233021 | 49 | 86 | 0.0 | 6.1 | 0.00 | 0.00 | 0.00 | 78 | 1010.0 |
| 20260505231527 | 49 | 102 | 1.7 | 4.3 | 0.00 | 0.00 | 0.00 | 78 | 1010.0 |
| 20260505230019 | 49 | 58 | 0.9 | 6.1 | 0.00 | 0.00 | 0.00 | 78 | 1010.1 |
| 20260505224526 | 49 | 54 | 0.9 | 7.8 | 0.00 | 0.00 | 0.00 | 78 | 1010.3 |
| 20260505223017 | 50 | 95 | 1.7 | 5.2 | 0.00 | 0.00 | 0.00 | 79 | 1010.3 |
| 20260505221513 | 50 | 28 | 1.7 | 6.1 | 0.00 | 0.00 | 0.00 | 79 | 1010.4 |
| 20260505220009 | 50 | 80 | 0.0 | 4.3 | 0.00 | 0.00 | 0.00 | 79 | 1010.4 |
| 20260505214508 | 50 | 97 | 0.0 | 7.0 | 0.00 | 0.00 | 0.00 | 80 | 1010.5 |
| 20260505213007 | 50 | 50 | 0.0 | 5.2 | 0.00 | 0.00 | 0.00 | 80 | 1010.5 |
| 20260505211520 | 50 | 50 | 0.9 | 3.5 | 0.00 | 0.00 | 0.00 | 80 | 1010.6 |
| 20260505210006 | 50 | 16 | 0.9 | 6.1 | 0.00 | 0.00 | 0.00 | 80 | 1010.7 |
| 20260505204505 | 50 | 298 | 1.7 | 4.3 | 0.00 | 0.00 | 0.00 | 80 | 1010.8 |
| 20260505203005 | 50 | 323 | 0.9 | 4.3 | 0.00 | 0.00 | 0.00 | 79 | 1011.0 |
| 20260505201507 | 50 | 44 | 0.9 | 4.3 | 0.00 | 0.00 | 0.00 | 79 | 1011.0 |
| 20260505200004 | 50 | 71 | 0.9 | 4.3 | 0.00 | 0.00 | 0.00 | 79 | 1010.9 |
| 20260505194506 | 50 | 70 | 0.9 | 6.1 | 0.00 | 0.00 | 0.00 | 79 | 1010.8 |
| 20260505193003 | 51 | 355 | 1.7 | 3.5 | 0.00 | 0.00 | 0.00 | 78 | 1010.7 |
| 20260505191503 | 51 | 65 | 0.9 | 3.5 | 0.00 | 0.00 | 0.00 | 78 | 1010.7 |
| 20260505190100 | 51 | 30 | 0.9 | 4.3 | 0.00 | 0.00 | 0.00 | 77 | 1010.4 |
| 20260505184603 | 51 | 80 | 0.9 | 5.2 | 0.00 | 0.00 | 0.00 | 77 | 1010.4 |
| 20260505183013 | 51 | 32 | 0.0 | 4.3 | 0.00 | 0.00 | 0.00 | 77 | 1010.3 |
| 20260505181539 | 52 | 90 | 0.9 | 3.5 | 0.00 | 0.00 | 0.00 | 77 | 1010.4 |
| 20260505180036 | 52 | 83 | 0.9 | 4.3 | 0.00 | 0.00 | 0.00 | 78 | 1010.4 |
| 20260505174536 | 52 | 23 | 1.7 | 7.8 | 0.00 | 0.00 | 0.00 | 77 | 1010.4 |
| 20260505173034 | 52 | 74 | 1.7 | 5.2 | 0.00 | 0.00 | 0.00 | 77 | 1010.4 |
| 20260505171534 | 52 | 29 | 1.7 | 5.2 | 0.00 | 0.00 | 0.00 | 77 | 1010.6 |
| 20260505170037 | 52 | 355 | 0.9 | 7.8 | 0.00 | 0.00 | 0.00 | 77 | 1010.6 |
| 20260505164535 | 53 | 117 | 0.9 | 8.7 | 0.00 | 0.00 | 0.00 | 77 | 1010.6 |
| 20260505163033 | 53 | 78 | 2.6 | 5.2 | 0.00 | 0.00 | 0.00 | 75 | 1010.6 |
| 20260505161531 | 53 | 90 | 1.7 | 7.0 | 0.00 | 0.00 | 0.00 | 76 | 1010.6 |
| 20260505153028 | 53 | 286 | 0.0 | 4.3 | 0.00 | 0.00 | 0.00 | 76 | 1010.8 |
| 20260505151534 | 53 | 323 | 1.7 | 5.2 | 0.00 | 0.00 | 0.00 | 75 | 1010.8 |
| 20260505124518 | 54 | 43 | 3.5 | 10.4 | 0.00 | 0.00 | 0.00 | 72 | 1011.5 |
| 20260505123013 | 53 | 26 | 0.9 | 4.3 | 0.00 | 0.00 | 0.00 | 73 | 1011.7 |
| 20260505121513 | 53 | 69 | 1.7 | 7.0 | 0.00 | 0.00 | 0.00 | 74 | 1011.7 |
| 20260505120015 | 53 | 93 | 2.6 | 9.6 | 0.00 | 0.00 | 0.00 | 74 | 1011.7 |
| 20260505114509 | 53 | 281 | 0.9 | 6.1 | 0.00 | 0.00 | 0.00 | 74 | 1011.8 |
| 20260505113007 | 53 | 18 | 0.0 | 5.2 | 0.00 | 0.00 | 0.00 | 75 | 1011.8 |